Weather History for KCKB - September, 2014

Change the Weather History Date:

Thursday, September 4, 2014

  Actual Average Record
Temperature  
Mean Temperature 74 °F -  
Max Temperature 87 °F 81 °F 102 °F (1953)
Min Temperature 61 °F 58 °F 39 °F (1946)
Cooling Degree Days 8    
Growing Degree Days 24 (Base 50)    
Moisture  
Dew Point 64 °F    
Average Humidity 83    
Maximum Humidity 100    
Minimum Humidity 55    
Precipitation  
Precipitation 0.00 in - - ()
Sea Level Pressure  
Sea Level Pressure 30.11 in    
Wind  
Wind Speed 1 mph (South)    
Max Wind Speed 8 mph    
Max Gust Speed -    
Visibility 6 miles    
Events Fog    
Averages and records for this station are not official NWS values.
T = Trace of Precipitation, MM = Missing Value Source: NWS Daily Summary

Daily Weather History Graph

Daily Weather History Graph

Search for Another Location

Airport or City:

Trip Planner

Search our weather history database for the weather conditions in past years. The results will help you decide how hot, cold, wet, or windy it might be!

Date:

Astronomy

Sep. 04, 2014 Rise Set
Actual Time 6:52 AM EDT 7:46 PM EDT
Civil Twilight 6:24 AM EDT 8:14 PM EDT
Nautical Twilight 5:52 AM EDT 8:46 PM EDT
Astronomical Twilight 5:18 AM EDT 9:20 PM EDT
Moon 4:22 PM EDT (9/4) 1:42 AM EDT (9/4)
Length of Visible Light 13h 49m
Length of Day
12h 54m
Waxing Gibbous, 74% of the Moon is Illuminated
Sep 4
Waxing Gibbous
Sep 8
Full
Sep 15
Last Quarter
Sep 24
New
Oct 1
First Quarter

Hourly Weather History & Observations

Time (EDT) Temp. Heat Index Dew Point Humidity Pressure Visibility Wind Dir Wind Speed Gust Speed Precip Events Conditions
12:53 AM 64.0 °F - 62.1 °F 93% 30.11 in 4.0 mi Calm Calm - N/A   Scattered Clouds
1:49 AM 62.6 °F - 62.6 °F 100% 30.14 in 2.5 mi Calm Calm - N/A   Clear
1:53 AM 63.0 °F - 62.1 °F 97% 30.10 in 3.0 mi Calm Calm - N/A   Clear
2:25 AM 63.0 °F - 62.1 °F 97% 30.14 in 1.8 mi Calm Calm - N/A   Clear
2:51 AM 64.4 °F - 62.6 °F 94% 30.14 in 3.0 mi Calm Calm - N/A   Mostly Cloudy
2:53 AM 64.0 °F - 62.1 °F 93% 30.10 in 4.0 mi Calm Calm - N/A   Mostly Cloudy
3:53 AM 63.0 °F - 61.0 °F 93% 30.10 in 4.0 mi Calm Calm - N/A   Clear
3:58 AM 63.0 °F - 61.0 °F 93% 30.13 in 1.8 mi Calm Calm - N/A   Clear
4:04 AM 62.1 °F - 61.0 °F 96% 30.14 in 0.5 mi Calm Calm - N/A Fog Fog
4:25 AM 62.1 °F - 61.0 °F 96% 30.13 in 1.2 mi Calm Calm - N/A   Scattered Clouds
4:32 AM 63.0 °F - 61.0 °F 93% 30.13 in 0.8 mi NE 3.5 mph - N/A   Mist
4:37 AM 62.1 °F - 61.0 °F 96% 30.14 in 1.2 mi Calm Calm - N/A   Partly Cloudy
4:43 AM 62.1 °F - 61.0 °F 96% 30.14 in 3.0 mi South 3.5 mph - N/A   Partly Cloudy
4:53 AM 63.0 °F - 61.0 °F 93% 30.09 in 4.0 mi Calm Calm - N/A   Clear
5:53 AM 62.1 °F - 61.0 °F 96% 30.10 in 2.5 mi Calm Calm - N/A   Clear
6:15 AM 62.1 °F - 60.1 °F 93% 30.14 in 4.0 mi Calm Calm - N/A   Partly Cloudy
6:36 AM 62.1 °F - 60.1 °F 93% 30.15 in 2.5 mi Calm Calm - N/A   Partly Cloudy
6:44 AM 61.0 °F - 60.1 °F 97% 30.15 in 3.0 mi Calm Calm - N/A   Scattered Clouds
6:53 AM 62.1 °F - 60.1 °F 93% 30.11 in 3.0 mi Calm Calm - N/A   Mostly Cloudy
7:53 AM 64.0 °F - 62.1 °F 93% 30.12 in 6.0 mi Calm Calm - N/A   Clear
8:53 AM 66.9 °F - 64.0 °F 90% 30.11 in 8.0 mi Calm Calm - N/A   Scattered Clouds
9:53 AM 72.0 °F - 66.0 °F 81% 30.11 in 10.0 mi SSE 3.5 mph - 0.00 in   Clear
10:53 AM 79.0 °F - 66.9 °F 66% 30.10 in 10.0 mi SE 3.5 mph - N/A   Clear
11:53 AM 82.0 °F 84.5 °F 66.9 °F 60% 30.10 in 10.0 mi West 5.8 mph - N/A   Clear
12:53 PM 84.0 °F 87.0 °F 68.0 °F 58% 30.12 in 10.0 mi Calm Calm - N/A   Partly Cloudy
1:53 PM 82.9 °F 85.4 °F 66.9 °F 58% 30.11 in 10.0 mi WSW 6.9 mph - N/A   Scattered Clouds
2:53 PM 86.0 °F 89.4 °F 68.0 °F 55% 30.07 in 10.0 mi Calm Calm - N/A   Mostly Cloudy
3:53 PM 86.0 °F 90.1 °F 69.1 °F 57% 30.04 in 10.0 mi Variable 5.8 mph - N/A   Clear
4:53 PM 86.0 °F 89.4 °F 68.0 °F 55% 30.04 in 10.0 mi West 5.8 mph - N/A   Clear
5:53 PM 84.0 °F 87.0 °F 68.0 °F 58% 30.06 in 10.0 mi SSW 8.1 mph - N/A   Clear
6:53 PM 84.9 °F 88.8 °F 69.1 °F 59% 30.07 in 10.0 mi West 4.6 mph - N/A   Clear
7:53 PM 80.1 °F 82.9 °F 69.1 °F 69% 30.10 in 10.0 mi SSE 6.9 mph - N/A   Clear
8:53 PM 75.0 °F - 64.9 °F 71% 30.10 in 10.0 mi South 3.5 mph - N/A   Clear
9:53 PM 73.0 °F - 66.0 °F 79% 30.10 in 10.0 mi Calm Calm - N/A   Clear
10:53 PM 72.0 °F - 66.0 °F 81% 30.11 in 10.0 mi SSE 3.5 mph - N/A   Mostly Cloudy
11:53 PM 71.1 °F - 66.0 °F 84% 30.12 in 10.0 mi Calm Calm - N/A   Clear